Tracking 25701 objects as of 3-Jul-2022
HD Live streaming from Space Station
objects crossing your sky now

STARLINK-2410

Track STARLINK-2410 now!
10-day predictions
STARLINK-2410 is classified as:


NORAD ID: 47825
Int'l Code: 2021-018AQ
Perigee: 553.2 km
Apogee: 555.6 km
Inclination: 53.1 °
Period: 95.6 minutes
Semi major axis: 6925 km
RCS: Unknown
Launch date: March 11, 2021
Source: United States (US)
Launch site: AIR FORCE EASTERN TEST RANGE (AFETR)
aabbcc
Your satellite tracking list
Your tracking list is empty




NASA's NSSDC Master Catalog

Two Line Element Set (TLE):
1 47825U 21018AQ  22183.56261314  .00000510  00000-0  53167-4 0  9994
2 47825  53.0540 174.6257 0001728  60.1538 299.9622 15.06391358 73705
Source of the keplerian elements: AFSPC